This is the latest recevied weather packets stored in our database for station/object KD9IXX-13. If no packets are shown the sender has not sent any weather packets the latest 10 day(s).
| Time | Temp. | Humidity | Pressure | Rain* | Wind** | Luminosity | Snow |
|---|---|---|---|---|---|---|---|
| 1787854802 | 27.22° C | 63% | 1018.1 hPa | 0 mm | - | 182 W/m² | - |
| 1787853302 | 26.67° C | 65% | 1018 hPa | 0 mm | - | 212 W/m² | - |
| 1787853002 | 27.22° C | 61% | 1018 hPa | 0 mm | - | 732 W/m² | - |
| 1787852701 | 27.22° C | 63% | 1018.2 hPa | 0 mm | - | 716 W/m² | - |
| 1787852402 | 25.56° C | 65% | 1018 hPa | 0 mm | - | 716 W/m² | - |
| 1787851503 | 26.67° C | 65% | 1018.4 hPa | 0 mm | - | 682 W/m² | - |
| 1787850003 | 25.56° C | 68% | 1018.3 hPa | 0 mm | - | 717 W/m² | - |
| 1787849701 | 26.11° C | 65% | 1018.5 hPa | 0 mm | - | 681 W/m² | - |
| 1787849402 | 26.67° C | 65% | 1018.4 hPa | 0 mm | - | 693 W/m² | - |
| 1787849102 | 26.11° C | 71% | 1018.6 hPa | 0 mm | - | 688 W/m² | - |
| 1787848801 | 25.56° C | 68% | 1018.4 hPa | 0 mm | - | 716 W/m² | - |
| 1787848502 | 26.67° C | 68% | 1018.4 hPa | 0 mm | - | 189 W/m² | - |
| 1787847302 | 26.67° C | 68% | 1018.3 hPa | 0 mm | - | 677 W/m² | - |
| 1787847001 | 25.56° C | 68% | 1018.2 hPa | 0 mm | - | 696 W/m² | - |
| 1787846702 | 26.11° C | 68% | 1018.4 hPa | 0 mm | - | 204 W/m² | - |
| 1787846402 | 25° C | 69% | 1018.4 hPa | 0 mm | - | 687 W/m² | - |
| 1787845202 | 25.56° C | 70% | 1018.4 hPa | 0 mm | - | 670 W/m² | - |
| 1787844902 | 25.56° C | 68% | 1018.1 hPa | 0 mm | - | 686 W/m² | - |
| 1787844302 | 25° C | 70% | 1017.9 hPa | 0 mm | - | 647 W/m² | - |
| 1787842802 | 25° C | 72% | 1017.8 hPa | 0 mm | - | 632 W/m² | - |
| 1787842502 | 25° C | 75% | 1017.9 hPa | 0 mm | - | 602 W/m² | - |
| 1787841902 | 24.44° C | 75% | 1017.7 hPa | 0 mm | - | 592 W/m² | - |
| 1787841302 | 24.44° C | 76% | 1017.6 hPa | 0 mm | - | 583 W/m² | - |
| 1787841002 | 24.44° C | 74% | 1017.4 hPa | 0 mm | - | 560 W/m² | - |
| 1787840402 | 23.89° C | 78% | 1017.6 hPa | 0 mm | - | 514 W/m² | - |
* Rain latest hour (hover to see other rain measurements)
** Current wind speed in m/s (hover to see current wind gust speed)